This is the latest recevied weather packets stored in our database for station/object SR9SMR. If no packets are shown the sender has not sent any weather packets the latest 10 day(s).
| Time | Temp. | Humidity | Pressure | Rain* | Wind** | Luminosity | Snow |
|---|---|---|---|---|---|---|---|
| 1787663810 | 11.67° C | 100% | 903.9 hPa | - | - | - | - |
| 1787663768 | 11.67° C | 100% | 903.9 hPa | - | - | - | - |
| 1787663692 | 11.11° C | 100% | 906.6 hPa | - | - | - | - |
| 1787663639 | 11.67° C | 100% | 911 hPa | - | - | - | - |
| 1787663573 | 12.22° C | 100% | 902.8 hPa | - | - | - | - |
| 1787663509 | 12.22° C | 100% | 902.7 hPa | - | - | - | - |
| 1787663434 | 12.22° C | 100% | 902.6 hPa | - | - | - | - |
| 1787663380 | 12.78° C | 100% | 902.5 hPa | - | - | - | - |
| 1787663306 | 12.78° C | 100% | 902.4 hPa | - | - | - | - |
| 1787663241 | 12.22° C | 100% | 902.4 hPa | - | - | - | - |
| 1787663176 | 12.22° C | 100% | 902.3 hPa | - | - | - | - |
| 1787663122 | 12.22° C | 100% | 902.7 hPa | - | - | - | - |
| 1787663048 | 12.22° C | 100% | 902.8 hPa | - | - | - | - |
| 1787662994 | 12.22° C | 100% | 902.8 hPa | - | - | - | - |
| 1787662919 | 12.22° C | 100% | 903.3 hPa | - | - | - | - |
| 1787662865 | 12.22° C | 100% | 907.1 hPa | - | - | - | - |
| 1787662790 | 12.78° C | 100% | 902.8 hPa | - | - | - | - |
| 1787662748 | 12.78° C | 100% | 903 hPa | - | - | - | - |
| 1787662672 | 12.78° C | 100% | 902.8 hPa | - | - | - | - |
| 1787662608 | 12.78° C | 100% | 902.8 hPa | - | - | - | - |
| 1787662543 | 12.78° C | 100% | 902.7 hPa | - | - | - | - |
| 1787662490 | 12.78° C | 100% | 902.6 hPa | - | - | - | - |
| 1787662414 | 12.22° C | 100% | 902.4 hPa | - | - | - | - |
| 1787662361 | 12.22° C | 100% | 902.4 hPa | - | - | - | - |
| 1787662288 | 11.67° C | 100% | 902 hPa | - | - | - | - |
* Rain since midnight (hover to see other rain measurements)
** Current wind speed in m/s (hover to see current wind gust speed)